Home   Weather   Chania   Past weeks

Flag for Greece Past Weather in Chania, Crete, Greece — Yesterday and Last 2 Weeks

Now
75 °F

Scattered clouds.


Feels Like: 77 °F
Forecast: 69 / 79 °F
Wind: 9 mph from Northeast

Location: Souda Airport

Current Time: Sep 27, 2016 at 1:26:51 PM

Latest Report: Sep 27, 2016 at 12:50 PM


Visibility: N/A

Pressure: 30.12 "Hg

Humidity: 61%

Dew Point: 61 °F

Location of ChaniaLocation

Past Weather in Chania — Graph

°F

Chania Temperature Yesterday

Maximum temperature yesterday: 75 °F (at 1:50 PM)
Minimum temperature yesterday: 63 °F (at 1:50 AM)
Average temperature yesterday: 68 °F

High & Low Weather Summary for the Past Weeks

 TemperatureHumidityPressure
High91 °F (Sep 18, 2:50 PM)94% (Sep 13, 4:50 AM)30.18 "Hg (Sep 13, 4:50 AM)
Low61 °F (Sep 25, 5:50 AM)40% (Sep 17, 1:20 PM)29.74 "Hg (Sep 20, 2:50 AM)
Average74 °F71%29.98 "Hg
* Reported Sep 12 11:20 AM — Sep 27 11:50 AM, Chania, Weather by CustomWeather, © 2016

Note: Actual official high and low records may vary slightly from our data, if they occured in-between our weather recording intervals... More about our weather records

Advertising

Chania Weather History for the Previous 24 Hours

Scroll right to see more
 ConditionsComfort  
Time TempWeatherWind HumidityBarometerVisibility
11:50 AM
Tue, Sep 27
75 °FPassing clouds.9 mph57%30.12 "HgN/A
11:20 AM73 °FScattered clouds.9 mph61%30.09 "HgN/A
10:50 AM73 °FScattered clouds.7 mph61%30.09 "HgN/A
10:20 AM70 °FScattered clouds.7 mph64%30.09 "HgN/A
9:50 AM70 °FScattered clouds.7 mph64%30.09 "HgN/A
9:20 AM68 °FScattered clouds.5 mph69%30.07 "HgN/A
8:50 AM68 °FScattered clouds.No wind69%30.07 "HgN/A
8:20 AM64 °FScattered clouds.No wind78%30.07 "HgN/A
7:50 AM63 °FScattered clouds.No wind83%30.07 "HgN/A
7:20 AM63 °FScattered clouds.No wind88%30.07 "HgN/A
6:50 AM63 °FPassing clouds.No wind88%30.07 "HgN/A
6:20 AM63 °FPassing clouds.No wind83%30.04 "HgN/A
5:50 AM63 °FPassing clouds.5 mph83%30.04 "HgN/A
5:20 AM63 °FPassing clouds.No wind83%30.04 "HgN/A
4:50 AM63 °FPassing clouds.No wind83%30.04 "HgN/A
3:50 AM63 °FPassing clouds.No wind83%30.04 "HgN/A
3:20 AM63 °FPassing clouds.No wind83%30.04 "HgN/A
2:50 AM63 °FPassing clouds.No wind83%30.04 "HgN/A
2:20 AM63 °FPassing clouds.No wind83%30.07 "HgN/A
1:50 AM63 °FPassing clouds.No wind83%30.04 "HgN/A
1:20 AM63 °FPassing clouds.No wind83%30.07 "HgN/A
12:50 AM63 °FPassing clouds.No wind83%30.07 "HgN/A
12:20 AM64 °FPassing clouds.No wind78%30.07 "HgN/A
11:50 PM
Mon, Sep 26
64 °FPassing clouds.No wind78%30.07 "HgN/A
11:20 PM64 °FPassing clouds.No wind78%30.07 "HgN/A
10:50 PM64 °FPassing clouds.No wind78%30.07 "HgN/A
10:20 PM66 °FPassing clouds.No wind73%30.07 "HgN/A
9:50 PM66 °FPassing clouds.No wind73%30.04 "HgN/A
9:20 PM68 °FPassing clouds.No wind73%30.04 "HgN/A
8:50 PM68 °FPassing clouds.No wind73%30.04 "HgN/A
8:20 PM70 °FPassing clouds.No wind69%30.04 "HgN/A
7:50 PM70 °FPassing clouds.5 mph69%30.04 "HgN/A
7:20 PM72 °FPassing clouds.7 mph65%30.01 "HgN/A
6:50 PM72 °FScattered clouds.7 mph65%30.01 "HgN/A
6:20 PM72 °FScattered clouds.7 mph61%30.01 "HgN/A
5:50 PM72 °FScattered clouds.9 mph61%30.01 "HgN/A
5:20 PM73 °FScattered clouds.9 mph57%30.01 "HgN/A
4:50 PM73 °FScattered clouds.9 mph57%30.01 "HgN/A
4:20 PM75 °FScattered clouds.7 mph54%30.01 "HgN/A
3:50 PM75 °FScattered clouds.7 mph54%30.01 "HgN/A
3:20 PM75 °FScattered clouds.9 mph54%30.01 "HgN/A
2:50 PM75 °FScattered clouds.9 mph54%30.01 "HgN/A
2:20 PM75 °FPartly sunny.7 mph57%30.01 "HgN/A
1:50 PM75 °FPartly sunny.7 mph57%30.01 "HgN/A
1:20 PM73 °FPartly sunny.7 mph61%30.01 "HgN/A
Weather by CustomWeather, © 2016

See weather overviewHow to use our weather pages